Year,Month,Day,Hour,Minute,Value (Times are PST for temperature in C)
2018,07,08,00,00,11.90
2018,07,08,00,01,11.90
2018,07,08,00,02,11.90
2018,07,08,00,03,11.90
2018,07,08,00,04,11.90
2018,07,08,00,05,11.90
2018,07,08,00,06,11.80
2018,07,08,00,07,11.80
2018,07,08,00,08,11.80
2018,07,08,00,09,11.80
2018,07,08,00,10,11.80
2018,07,08,00,11,11.80
2018,07,08,00,12,11.80
2018,07,08,00,13,11.80
2018,07,08,00,14,11.80
2018,07,08,00,15,11.70
2018,07,08,00,16,11.70
2018,07,08,00,17,11.70
2018,07,08,00,18,11.70
2018,07,08,00,19,11.70
2018,07,08,00,20,11.60
2018,07,08,00,21,11.60
2018,07,08,00,22,11.60
2018,07,08,00,23,11.60
2018,07,08,00,24,11.60
2018,07,08,00,25,11.50
2018,07,08,00,26,11.50
2018,07,08,00,27,11.50
2018,07,08,00,28,11.50
2018,07,08,00,29,11.50
2018,07,08,00,30,11.60
2018,07,08,00,31,11.60
2018,07,08,00,32,11.60
2018,07,08,00,33,11.60
2018,07,08,00,34,11.60
2018,07,08,00,35,11.50
2018,07,08,00,36,11.50
2018,07,08,00,37,11.50
2018,07,08,00,38,11.40
2018,07,08,00,39,11.40
2018,07,08,00,40,11.40
2018,07,08,00,41,11.40
2018,07,08,00,42,11.40
2018,07,08,00,43,11.40
2018,07,08,00,44,11.40
2018,07,08,00,45,11.40
2018,07,08,00,46,11.40
2018,07,08,00,47,11.40
2018,07,08,00,48,11.40
2018,07,08,00,49,11.40
2018,07,08,00,50,11.40
2018,07,08,00,51,11.30
2018,07,08,00,52,11.30
2018,07,08,00,53,11.30
2018,07,08,00,54,11.30
2018,07,08,00,55,11.30
2018,07,08,00,56,11.30
2018,07,08,00,57,11.30
2018,07,08,00,58,11.30
2018,07,08,00,59,11.30
2018,07,08,01,00,11.30
2018,07,08,01,01,11.20
2018,07,08,01,02,11.20
2018,07,08,01,03,11.30
2018,07,08,01,04,11.30
2018,07,08,01,05,11.20
2018,07,08,01,06,11.20
2018,07,08,01,07,11.20
2018,07,08,01,08,11.20
2018,07,08,01,09,11.20
2018,07,08,01,10,11.20
2018,07,08,01,11,11.20
2018,07,08,01,12,11.20
2018,07,08,01,13,11.20
2018,07,08,01,14,11.20
2018,07,08,01,15,11.10
2018,07,08,01,16,11.10
2018,07,08,01,17,11.10
2018,07,08,01,18,11.10
2018,07,08,01,19,11.10
2018,07,08,01,20,11.10
2018,07,08,01,21,11.10
2018,07,08,01,22,11.00
2018,07,08,01,23,11.00
2018,07,08,01,24,11.00
2018,07,08,01,25,11.00
2018,07,08,01,26,11.00
2018,07,08,01,27,11.00
2018,07,08,01,28,11.00
2018,07,08,01,29,11.10
2018,07,08,01,30,11.10
2018,07,08,01,31,11.10
2018,07,08,01,32,11.00
2018,07,08,01,33,11.00
2018,07,08,01,34,11.00
2018,07,08,01,35,11.00
2018,07,08,01,36,11.00
2018,07,08,01,37,10.90
2018,07,08,01,38,10.90
2018,07,08,01,39,10.90
2018,07,08,01,40,10.90
2018,07,08,01,41,10.90
2018,07,08,01,42,10.90
2018,07,08,01,43,10.90
2018,07,08,01,44,10.80
2018,07,08,01,45,10.80
2018,07,08,01,46,10.80
2018,07,08,01,47,10.80
2018,07,08,01,48,10.80
2018,07,08,01,49,10.80
2018,07,08,01,50,10.80
2018,07,08,01,51,10.80
2018,07,08,01,52,10.80
2018,07,08,01,53,10.80
2018,07,08,01,54,10.80
2018,07,08,01,55,10.80
2018,07,08,01,56,10.80
2018,07,08,01,57,10.80
2018,07,08,01,58,10.80
2018,07,08,01,59,10.80
2018,07,08,02,00,10.80
2018,07,08,02,01,10.80
2018,07,08,02,02,10.80
2018,07,08,02,03,10.70
2018,07,08,02,04,10.70
2018,07,08,02,05,10.70
2018,07,08,02,06,10.70
2018,07,08,02,07,10.70
2018,07,08,02,08,10.70
2018,07,08,02,09,10.70
2018,07,08,02,10,10.70
2018,07,08,02,11,10.70
2018,07,08,02,12,10.70
2018,07,08,02,13,10.70
2018,07,08,02,14,10.70
2018,07,08,02,15,10.70
2018,07,08,02,16,10.70
2018,07,08,02,17,10.70
2018,07,08,02,18,10.70
2018,07,08,02,19,10.70
2018,07,08,02,20,10.60
2018,07,08,02,21,10.60
2018,07,08,02,22,10.60
2018,07,08,02,23,10.60
2018,07,08,02,24,10.60
2018,07,08,02,25,10.60
2018,07,08,02,26,10.60
2018,07,08,02,27,10.60
2018,07,08,02,28,10.60
2018,07,08,02,29,10.60
2018,07,08,02,30,10.60
2018,07,08,02,31,10.60
2018,07,08,02,32,10.60
2018,07,08,02,33,10.60
2018,07,08,02,34,10.60
2018,07,08,02,35,10.60
2018,07,08,02,36,10.60
2018,07,08,02,37,10.60
2018,07,08,02,38,10.60
2018,07,08,02,39,10.60
2018,07,08,02,40,10.60
2018,07,08,02,41,10.60
2018,07,08,02,42,10.60
2018,07,08,02,43,10.60
2018,07,08,02,44,10.60
2018,07,08,02,45,10.60
2018,07,08,02,46,10.60
2018,07,08,02,47,10.60
2018,07,08,02,48,10.60
2018,07,08,02,49,10.60
2018,07,08,02,50,10.60
2018,07,08,02,51,10.50
2018,07,08,02,52,10.50
2018,07,08,02,53,10.50
2018,07,08,02,54,10.50
2018,07,08,02,55,10.50
2018,07,08,02,56,10.50
2018,07,08,02,57,10.50
2018,07,08,02,58,10.50
2018,07,08,02,59,10.60
2018,07,08,03,00,10.60
2018,07,08,03,01,10.60
2018,07,08,03,02,10.50
2018,07,08,03,03,10.50
2018,07,08,03,04,10.50
2018,07,08,03,05,10.50
2018,07,08,03,06,10.50
2018,07,08,03,07,10.50
2018,07,08,03,08,10.50
2018,07,08,03,09,10.50
2018,07,08,03,10,10.50
2018,07,08,03,11,10.40
2018,07,08,03,12,10.40
2018,07,08,03,13,10.40
2018,07,08,03,14,10.40
2018,07,08,03,15,10.40
2018,07,08,03,16,10.40
2018,07,08,03,17,10.40
2018,07,08,03,18,10.40
2018,07,08,03,19,10.40
2018,07,08,03,20,10.40
2018,07,08,03,21,10.40
2018,07,08,03,22,10.40
2018,07,08,03,23,10.40
2018,07,08,03,24,10.40
2018,07,08,03,25,10.40
2018,07,08,03,26,10.40
2018,07,08,03,27,10.40
2018,07,08,03,28,10.30
2018,07,08,03,29,10.40
2018,07,08,03,30,10.30
2018,07,08,03,31,10.40
2018,07,08,03,32,10.40
2018,07,08,03,33,10.40
2018,07,08,03,34,10.40
2018,07,08,03,35,10.40
2018,07,08,03,36,10.40
2018,07,08,03,37,10.40
2018,07,08,03,38,10.40
2018,07,08,03,39,10.40
2018,07,08,03,40,10.40
2018,07,08,03,41,10.40
2018,07,08,03,42,10.40
2018,07,08,03,43,10.40
2018,07,08,03,44,10.40
2018,07,08,03,45,10.40
2018,07,08,03,46,10.40
2018,07,08,03,47,10.40
2018,07,08,03,48,10.40
2018,07,08,03,49,10.40
2018,07,08,03,50,10.40
2018,07,08,03,51,10.40
2018,07,08,03,52,10.40
2018,07,08,03,53,10.40
2018,07,08,03,54,10.40
2018,07,08,03,55,10.40
2018,07,08,03,56,10.30
2018,07,08,03,57,10.30
2018,07,08,03,58,10.30
2018,07,08,03,59,10.30
2018,07,08,04,00,10.30
2018,07,08,04,01,10.30
2018,07,08,04,02,10.20
2018,07,08,04,03,10.20
2018,07,08,04,04,10.20
2018,07,08,04,05,10.30
2018,07,08,04,06,10.30
2018,07,08,04,07,10.30
2018,07,08,04,08,10.30
2018,07,08,04,09,10.30
2018,07,08,04,10,10.30
2018,07,08,04,11,10.30
2018,07,08,04,12,10.30
2018,07,08,04,13,10.30
2018,07,08,04,14,10.30
2018,07,08,04,15,10.30
2018,07,08,04,16,10.40
2018,07,08,04,17,10.40
2018,07,08,04,18,10.40
2018,07,08,04,19,10.40
2018,07,08,04,20,10.30
2018,07,08,04,21,10.30
2018,07,08,04,22,10.30
2018,07,08,04,23,10.30
2018,07,08,04,24,10.30
2018,07,08,04,25,10.30
2018,07,08,04,26,10.30
2018,07,08,04,27,10.30
2018,07,08,04,28,10.30
2018,07,08,04,29,10.30
2018,07,08,04,30,10.30
2018,07,08,04,31,10.30
2018,07,08,04,32,10.30
2018,07,08,04,33,10.30
2018,07,08,04,34,10.30
2018,07,08,04,35,10.30
2018,07,08,04,36,10.30
2018,07,08,04,37,10.30
2018,07,08,04,38,10.20
2018,07,08,04,39,10.20
2018,07,08,04,40,10.20
2018,07,08,04,41,10.20
2018,07,08,04,42,10.20
2018,07,08,04,43,10.20
2018,07,08,04,44,10.20
2018,07,08,04,45,10.20
2018,07,08,04,46,10.20
2018,07,08,04,47,10.20
2018,07,08,04,48,10.20
2018,07,08,04,49,10.20
2018,07,08,04,50,10.20
2018,07,08,04,51,10.20
2018,07,08,04,52,10.20
2018,07,08,04,53,10.20
2018,07,08,04,54,10.20
2018,07,08,04,55,10.20
2018,07,08,04,56,10.20
2018,07,08,04,57,10.20
2018,07,08,04,58,10.20
2018,07,08,04,59,10.20
2018,07,08,05,00,10.20
2018,07,08,05,01,10.20
2018,07,08,05,02,10.20
2018,07,08,05,03,10.20
2018,07,08,05,04,10.20
2018,07,08,05,05,10.20
2018,07,08,05,06,10.20
2018,07,08,05,07,10.10
2018,07,08,05,08,10.10
2018,07,08,05,09,10.10
2018,07,08,05,10,10.10
2018,07,08,05,11,10.10
2018,07,08,05,12,10.10
2018,07,08,05,13,10.20
2018,07,08,05,14,10.20
2018,07,08,05,15,10.20
2018,07,08,05,16,10.20
2018,07,08,05,17,10.30
2018,07,08,05,18,10.30
2018,07,08,05,19,10.30
2018,07,08,05,20,10.30
2018,07,08,05,21,10.30
2018,07,08,05,22,10.30
2018,07,08,05,23,10.30
2018,07,08,05,24,10.30
2018,07,08,05,25,10.30
2018,07,08,05,26,10.30
2018,07,08,05,27,10.30
2018,07,08,05,28,10.30
2018,07,08,05,29,10.20
2018,07,08,05,30,10.20
2018,07,08,05,31,10.20
2018,07,08,05,32,10.20
2018,07,08,05,33,10.20
2018,07,08,05,34,10.20
2018,07,08,05,35,10.10
2018,07,08,05,36,10.10
2018,07,08,05,37,10.10
2018,07,08,05,38,10.10
2018,07,08,05,39,10.10
2018,07,08,05,40,10.10
2018,07,08,05,41,10.10
2018,07,08,05,42,10.10
2018,07,08,05,43,10.10
2018,07,08,05,44,10.10
2018,07,08,05,45,10.10
2018,07,08,05,46,10.10
2018,07,08,05,47,10.10
2018,07,08,05,48,10.10
2018,07,08,05,49,10.10
2018,07,08,05,50,10.10
2018,07,08,05,51,10.10
2018,07,08,05,52,10.10
2018,07,08,05,53,10.10
2018,07,08,05,54,10.10
2018,07,08,05,55,10.10
2018,07,08,05,56,10.10
2018,07,08,05,57,10.10
2018,07,08,05,58,10.20
2018,07,08,05,59,10.20
2018,07,08,06,00,10.20
2018,07,08,06,01,10.30
2018,07,08,06,02,10.30
2018,07,08,06,03,10.30
2018,07,08,06,04,10.30
2018,07,08,06,05,10.30
2018,07,08,06,06,10.40
2018,07,08,06,07,10.40
2018,07,08,06,08,10.40
2018,07,08,06,09,10.40
2018,07,08,06,10,10.50
2018,07,08,06,11,10.40
2018,07,08,06,12,10.40
2018,07,08,06,13,10.40
2018,07,08,06,14,10.40
2018,07,08,06,15,10.40
2018,07,08,06,16,10.40
2018,07,08,06,17,10.30
2018,07,08,06,18,10.30
2018,07,08,06,19,10.30
2018,07,08,06,20,10.20
2018,07,08,06,21,10.20
2018,07,08,06,22,10.20
2018,07,08,06,23,10.20
2018,07,08,06,24,10.10
2018,07,08,06,25,10.10
2018,07,08,06,26,10.10
2018,07,08,06,27,10.10
2018,07,08,06,28,10.10
2018,07,08,06,29,10.10
2018,07,08,06,30,10.10
2018,07,08,06,31,10.10
2018,07,08,06,32,10.10
2018,07,08,06,33,10.10
2018,07,08,06,34,10.10
2018,07,08,06,35,10.20
2018,07,08,06,36,10.20
2018,07,08,06,37,10.30
2018,07,08,06,38,10.30
2018,07,08,06,39,10.40
2018,07,08,06,40,10.50
2018,07,08,06,41,10.50
2018,07,08,06,42,10.60
2018,07,08,06,43,10.70
2018,07,08,06,44,10.70
2018,07,08,06,45,10.80
2018,07,08,06,46,10.80
2018,07,08,06,47,10.90
2018,07,08,06,48,11.00
2018,07,08,06,49,11.00
2018,07,08,06,50,11.10
2018,07,08,06,51,11.10
2018,07,08,06,52,11.20
2018,07,08,06,53,11.20
2018,07,08,06,54,11.30
2018,07,08,06,55,11.30
2018,07,08,06,56,11.30
2018,07,08,06,57,11.40
2018,07,08,06,58,11.40
2018,07,08,06,59,11.50
2018,07,08,07,00,11.50
2018,07,08,07,01,11.60
2018,07,08,07,02,11.60
2018,07,08,07,03,11.70
2018,07,08,07,04,11.70
2018,07,08,07,05,11.70
2018,07,08,07,06,11.80
2018,07,08,07,07,11.80
2018,07,08,07,08,11.80
2018,07,08,07,09,11.80
2018,07,08,07,10,11.90
2018,07,08,07,11,11.90
2018,07,08,07,12,11.90
2018,07,08,07,13,11.90
2018,07,08,07,14,11.90
2018,07,08,07,15,11.90
2018,07,08,07,16,11.90
2018,07,08,07,17,11.90
2018,07,08,07,18,11.90
2018,07,08,07,19,11.90
2018,07,08,07,20,11.90
2018,07,08,07,21,11.90
2018,07,08,07,22,11.90
2018,07,08,07,23,11.90
2018,07,08,07,24,11.90
2018,07,08,07,25,11.90
2018,07,08,07,26,12.00
2018,07,08,07,27,12.00
2018,07,08,07,28,12.00
2018,07,08,07,29,12.00
2018,07,08,07,30,12.10
2018,07,08,07,31,12.10
2018,07,08,07,32,12.20
2018,07,08,07,33,12.20
2018,07,08,07,34,12.30
2018,07,08,07,35,12.30
2018,07,08,07,36,12.40
2018,07,08,07,37,12.40
2018,07,08,07,38,12.50
2018,07,08,07,39,12.60
2018,07,08,07,40,12.60
2018,07,08,07,41,12.60
2018,07,08,07,42,12.70
2018,07,08,07,43,12.70
2018,07,08,07,44,12.80
2018,07,08,07,45,12.80
2018,07,08,07,46,12.80
2018,07,08,07,47,12.80
2018,07,08,07,48,12.80
2018,07,08,07,49,12.80
2018,07,08,07,50,12.90
2018,07,08,07,51,12.90
2018,07,08,07,52,12.90
2018,07,08,07,53,12.90
2018,07,08,07,54,12.90
2018,07,08,07,55,13.00
2018,07,08,07,56,13.00
2018,07,08,07,57,13.10
2018,07,08,07,58,13.20
2018,07,08,07,59,13.30
2018,07,08,08,00,13.40
2018,07,08,08,01,13.60
2018,07,08,08,02,13.70
2018,07,08,08,03,13.70
2018,07,08,08,04,13.80
2018,07,08,08,05,13.90
2018,07,08,08,06,13.90
2018,07,08,08,07,13.90
2018,07,08,08,08,13.90
2018,07,08,08,09,13.90
2018,07,08,08,10,13.90
2018,07,08,08,11,13.90
2018,07,08,08,12,13.80
2018,07,08,08,13,13.80
2018,07,08,08,14,13.70
2018,07,08,08,15,13.60
2018,07,08,08,16,13.60
2018,07,08,08,17,13.60
2018,07,08,08,18,13.60
2018,07,08,08,19,13.60
2018,07,08,08,20,13.60
2018,07,08,08,21,13.60
2018,07,08,08,22,13.60
2018,07,08,08,23,13.70
2018,07,08,08,24,13.70
2018,07,08,08,25,13.70
2018,07,08,08,26,13.80
2018,07,08,08,27,13.80
2018,07,08,08,28,13.90
2018,07,08,08,29,13.90
2018,07,08,08,30,13.90
2018,07,08,08,31,14.00
2018,07,08,08,32,14.10
2018,07,08,08,33,14.00
2018,07,08,08,34,14.00
2018,07,08,08,35,13.90
2018,07,08,08,36,13.90
2018,07,08,08,37,13.90
2018,07,08,08,38,13.90
2018,07,08,08,39,13.90
2018,07,08,08,40,13.90
2018,07,08,08,41,13.90
2018,07,08,08,42,13.90
2018,07,08,08,43,14.00
2018,07,08,08,44,14.00
2018,07,08,08,45,14.10
2018,07,08,08,46,14.10
2018,07,08,08,47,14.20
2018,07,08,08,48,14.20
2018,07,08,08,49,14.20
2018,07,08,08,50,14.20
2018,07,08,08,51,14.20
2018,07,08,08,52,14.30
2018,07,08,08,53,14.30
2018,07,08,08,54,14.30
2018,07,08,08,55,14.30
2018,07,08,08,56,14.30
2018,07,08,08,57,14.40
2018,07,08,08,58,14.40
2018,07,08,08,59,14.40
2018,07,08,09,00,14.40
2018,07,08,09,01,14.50
2018,07,08,09,02,14.60
2018,07,08,09,03,14.60
2018,07,08,09,04,14.60
2018,07,08,09,05,14.70
2018,07,08,09,06,14.80
2018,07,08,09,07,14.80
2018,07,08,09,08,14.90
2018,07,08,09,09,15.00
2018,07,08,09,10,15.00
2018,07,08,09,11,15.10
2018,07,08,09,12,15.10
2018,07,08,09,13,15.10
2018,07,08,09,14,15.10
2018,07,08,09,15,15.10
2018,07,08,09,16,15.20
2018,07,08,09,17,15.20
2018,07,08,09,18,15.20
2018,07,08,09,19,15.20
2018,07,08,09,20,15.20
2018,07,08,09,21,15.30
2018,07,08,09,22,15.40
2018,07,08,09,23,15.40
2018,07,08,09,24,15.50
2018,07,08,09,25,15.50
2018,07,08,09,26,15.60
2018,07,08,09,27,15.60
2018,07,08,09,28,15.70
2018,07,08,09,29,15.80
2018,07,08,09,30,15.80
2018,07,08,09,31,15.90
2018,07,08,09,32,15.90
2018,07,08,09,33,15.90
2018,07,08,09,34,15.80
2018,07,08,09,35,15.80
2018,07,08,09,36,15.70
2018,07,08,09,37,15.70
2018,07,08,09,38,15.60
2018,07,08,09,39,15.50
2018,07,08,09,40,15.40
2018,07,08,09,41,15.30
2018,07,08,09,42,15.20
2018,07,08,09,43,15.10
2018,07,08,09,44,15.00
2018,07,08,09,45,15.00
2018,07,08,09,46,14.90
2018,07,08,09,47,14.90
2018,07,08,09,48,14.80
2018,07,08,09,49,14.80
2018,07,08,09,50,14.80
2018,07,08,09,51,14.80
2018,07,08,09,52,14.90
2018,07,08,09,53,14.90
2018,07,08,09,54,14.90
2018,07,08,09,55,15.00
2018,07,08,09,56,15.00
2018,07,08,09,57,15.00
2018,07,08,09,58,15.00
2018,07,08,09,59,15.00
2018,07,08,10,00,15.00
2018,07,08,10,01,15.00
2018,07,08,10,02,15.00
2018,07,08,10,03,15.10
2018,07,08,10,04,15.10
2018,07,08,10,05,15.10
2018,07,08,10,06,15.10
2018,07,08,10,07,15.10
2018,07,08,10,08,15.10
2018,07,08,10,09,15.10
2018,07,08,10,10,15.10
2018,07,08,10,11,15.10
2018,07,08,10,12,15.10
2018,07,08,10,13,15.10
2018,07,08,10,14,15.10
2018,07,08,10,15,15.10
2018,07,08,10,16,15.10
2018,07,08,10,17,15.10
2018,07,08,10,18,15.00
2018,07,08,10,19,15.00
2018,07,08,10,20,15.00
2018,07,08,10,21,14.90
2018,07,08,10,22,14.90
2018,07,08,10,23,14.80
2018,07,08,10,24,14.80
2018,07,08,10,25,14.80
2018,07,08,10,26,14.70
2018,07,08,10,27,14.70
2018,07,08,10,28,14.70
2018,07,08,10,29,14.70
2018,07,08,10,30,14.70
2018,07,08,10,31,14.60
2018,07,08,10,32,14.60
2018,07,08,10,33,14.60
2018,07,08,10,34,14.60
2018,07,08,10,35,14.60
2018,07,08,10,36,14.60
2018,07,08,10,37,14.60
2018,07,08,10,38,14.60
2018,07,08,10,39,14.60
2018,07,08,10,40,14.60
2018,07,08,10,41,14.60
2018,07,08,10,42,14.60
2018,07,08,10,43,14.60
2018,07,08,10,44,14.60
2018,07,08,10,45,14.60
2018,07,08,10,46,14.60
2018,07,08,10,47,14.60
2018,07,08,10,48,14.60
2018,07,08,10,49,14.60
2018,07,08,10,50,14.60
2018,07,08,10,51,14.60
2018,07,08,10,52,14.60
2018,07,08,10,53,14.60
2018,07,08,10,54,14.60
2018,07,08,10,55,14.70
2018,07,08,10,56,14.70
2018,07,08,10,57,14.80
2018,07,08,10,58,14.80
2018,07,08,10,59,14.90
2018,07,08,11,00,15.00
2018,07,08,11,01,15.00
2018,07,08,11,02,15.10
2018,07,08,11,03,15.10
2018,07,08,11,04,15.10
2018,07,08,11,05,15.20
2018,07,08,11,06,15.20
2018,07,08,11,07,15.30
2018,07,08,11,08,15.30
2018,07,08,11,09,15.30
2018,07,08,11,10,15.40
2018,07,08,11,11,15.40
2018,07,08,11,12,15.40
2018,07,08,11,13,15.40
2018,07,08,11,14,15.30
2018,07,08,11,15,15.30
2018,07,08,11,16,15.30
2018,07,08,11,17,15.30
2018,07,08,11,18,15.30
2018,07,08,11,19,15.30
2018,07,08,11,20,15.30
2018,07,08,11,21,15.30
2018,07,08,11,22,15.30
2018,07,08,11,23,15.30
2018,07,08,11,24,15.40
2018,07,08,11,25,15.40
2018,07,08,11,26,15.40
2018,07,08,11,27,15.50
2018,07,08,11,28,15.50
2018,07,08,11,29,15.60
2018,07,08,11,30,15.60
2018,07,08,11,31,15.60
2018,07,08,11,32,15.70
2018,07,08,11,33,15.80
2018,07,08,11,34,15.90
2018,07,08,11,35,16.00
2018,07,08,11,36,16.10
2018,07,08,11,37,16.10
2018,07,08,11,38,16.20
2018,07,08,11,39,16.30
2018,07,08,11,40,16.30
2018,07,08,11,41,16.40
2018,07,08,11,42,16.40
2018,07,08,11,43,16.40
2018,07,08,11,44,16.40
2018,07,08,11,45,16.40
2018,07,08,11,46,16.40
2018,07,08,11,47,16.40
2018,07,08,11,48,16.30
2018,07,08,11,49,16.40
2018,07,08,11,50,16.40
2018,07,08,11,51,16.40
2018,07,08,11,52,16.40
2018,07,08,11,53,16.40
2018,07,08,11,54,16.40
2018,07,08,11,55,16.30
2018,07,08,11,56,16.20
2018,07,08,11,57,16.20
2018,07,08,11,58,16.10
2018,07,08,11,59,16.10
2018,07,08,12,00,16.00
2018,07,08,12,01,16.00
2018,07,08,12,02,16.00
2018,07,08,12,03,15.90
2018,07,08,12,04,15.90
2018,07,08,12,05,15.90
2018,07,08,12,06,15.90
2018,07,08,12,07,15.90
2018,07,08,12,08,16.00
2018,07,08,12,09,16.00
2018,07,08,12,10,16.00
2018,07,08,12,11,16.00
2018,07,08,12,12,16.10
2018,07,08,12,13,16.10
2018,07,08,12,14,16.10
2018,07,08,12,15,16.20
2018,07,08,12,16,16.20
2018,07,08,12,17,16.30
2018,07,08,12,18,16.30
2018,07,08,12,19,16.30
2018,07,08,12,20,16.40
2018,07,08,12,21,16.40
2018,07,08,12,22,16.50
2018,07,08,12,23,16.60
2018,07,08,12,24,16.60
2018,07,08,12,25,16.60
2018,07,08,12,26,16.50
2018,07,08,12,27,16.50
2018,07,08,12,28,16.40
2018,07,08,12,29,16.40
2018,07,08,12,30,16.40
2018,07,08,12,31,16.30
2018,07,08,12,32,16.30
2018,07,08,12,33,16.40
2018,07,08,12,34,16.40
2018,07,08,12,35,16.40
2018,07,08,12,36,16.40
2018,07,08,12,37,16.40
2018,07,08,12,38,16.40
2018,07,08,12,39,16.40
2018,07,08,12,40,16.30
2018,07,08,12,41,16.40
2018,07,08,12,42,16.30
2018,07,08,12,43,16.30
2018,07,08,12,44,16.40
2018,07,08,12,45,16.40
2018,07,08,12,46,16.40
2018,07,08,12,47,16.50
2018,07,08,12,48,16.60
2018,07,08,12,49,16.60
2018,07,08,12,50,16.70
2018,07,08,12,51,16.70
2018,07,08,12,52,16.80
2018,07,08,12,53,16.90
2018,07,08,12,54,17.00
2018,07,08,12,55,17.10
2018,07,08,12,56,17.30
2018,07,08,12,57,17.40
2018,07,08,12,58,17.50
2018,07,08,12,59,17.60
2018,07,08,13,00,17.70
2018,07,08,13,01,17.70
2018,07,08,13,02,17.70
2018,07,08,13,03,17.70
2018,07,08,13,04,17.70
2018,07,08,13,05,17.70
2018,07,08,13,06,17.80
2018,07,08,13,07,17.90
2018,07,08,13,08,18.00
2018,07,08,13,09,18.20
2018,07,08,13,10,18.20
2018,07,08,13,11,18.30
2018,07,08,13,12,18.40
2018,07,08,13,13,18.40
2018,07,08,13,14,18.40
2018,07,08,13,15,18.40
2018,07,08,13,16,18.40
2018,07,08,13,17,18.30
2018,07,08,13,18,18.30
2018,07,08,13,19,18.30
2018,07,08,13,20,18.30
2018,07,08,13,21,18.30
2018,07,08,13,22,18.30
2018,07,08,13,23,18.20
2018,07,08,13,24,18.20
2018,07,08,13,25,18.20
2018,07,08,13,26,18.20
2018,07,08,13,27,18.20
2018,07,08,13,28,18.20
2018,07,08,13,29,18.20
2018,07,08,13,30,18.30
2018,07,08,13,31,18.30
2018,07,08,13,32,18.30
2018,07,08,13,33,18.20
2018,07,08,13,34,18.30
2018,07,08,13,35,18.30
2018,07,08,13,36,18.30
2018,07,08,13,37,18.30
2018,07,08,13,38,18.30
2018,07,08,13,39,18.20
2018,07,08,13,40,18.30
2018,07,08,13,41,18.30
2018,07,08,13,42,18.30
2018,07,08,13,43,18.30
2018,07,08,13,44,18.40
2018,07,08,13,45,18.30
2018,07,08,13,46,18.30
2018,07,08,13,47,18.30
2018,07,08,13,48,18.30
2018,07,08,13,49,18.40
2018,07,08,13,50,18.40
2018,07,08,13,51,18.50
2018,07,08,13,52,18.50
2018,07,08,13,53,18.60
2018,07,08,13,54,18.60
2018,07,08,13,55,18.70
2018,07,08,13,56,18.70
2018,07,08,13,57,18.70
2018,07,08,13,58,18.80
2018,07,08,13,59,18.80
2018,07,08,14,00,18.80
2018,07,08,14,01,18.90
2018,07,08,14,02,18.90
2018,07,08,14,03,19.00
2018,07,08,14,04,19.00
2018,07,08,14,05,19.00
2018,07,08,14,06,19.00
2018,07,08,14,07,19.10
2018,07,08,14,08,19.00
2018,07,08,14,09,19.00
2018,07,08,14,10,19.10
2018,07,08,14,11,19.10
2018,07,08,14,12,19.10
2018,07,08,14,13,19.10
2018,07,08,14,14,19.10
2018,07,08,14,15,19.10
2018,07,08,14,16,19.10
2018,07,08,14,17,19.10
2018,07,08,14,18,19.00
2018,07,08,14,19,18.90
2018,07,08,14,20,18.90
2018,07,08,14,21,18.90
2018,07,08,14,22,18.80
2018,07,08,14,23,18.80
2018,07,08,14,24,18.70
2018,07,08,14,25,18.60
2018,07,08,14,26,18.30
2018,07,08,14,27,18.10
2018,07,08,14,28,17.90
2018,07,08,14,29,17.80
2018,07,08,14,30,17.70
2018,07,08,14,31,17.60
2018,07,08,14,32,17.60
2018,07,08,14,33,17.60
2018,07,08,14,34,17.60
2018,07,08,14,35,17.60
2018,07,08,14,36,17.60
2018,07,08,14,37,17.60
2018,07,08,14,38,17.60
2018,07,08,14,39,17.60
2018,07,08,14,40,17.50
2018,07,08,14,41,17.50
2018,07,08,14,42,17.40
2018,07,08,14,43,17.40
2018,07,08,14,44,17.50
2018,07,08,14,45,17.50
2018,07,08,14,46,17.40
2018,07,08,14,47,17.50
2018,07,08,14,48,17.50
2018,07,08,14,49,17.50
2018,07,08,14,50,17.50
2018,07,08,14,51,17.60
2018,07,08,14,52,17.60
2018,07,08,14,53,17.70
2018,07,08,14,54,17.70
2018,07,08,14,55,17.70
2018,07,08,14,56,17.80
2018,07,08,14,57,17.80
2018,07,08,14,58,17.90
2018,07,08,14,59,18.00
2018,07,08,15,00,18.20
2018,07,08,15,01,18.20
2018,07,08,15,02,18.30
2018,07,08,15,03,18.40
2018,07,08,15,04,18.50
2018,07,08,15,05,18.60
2018,07,08,15,06,18.60
2018,07,08,15,07,18.70
2018,07,08,15,08,18.70
2018,07,08,15,09,18.80
2018,07,08,15,10,18.80
2018,07,08,15,11,18.80
2018,07,08,15,12,18.70
2018,07,08,15,13,18.70
2018,07,08,15,14,18.60
2018,07,08,15,15,18.60
2018,07,08,15,16,18.50
2018,07,08,15,17,18.50
2018,07,08,15,18,18.40
2018,07,08,15,19,18.40
2018,07,08,15,20,18.30
2018,07,08,15,21,18.20
2018,07,08,15,22,18.20
2018,07,08,15,23,18.10
2018,07,08,15,24,18.00
2018,07,08,15,25,17.90
2018,07,08,15,26,17.90
2018,07,08,15,27,17.80
2018,07,08,15,28,17.80
2018,07,08,15,29,17.80
2018,07,08,15,30,17.70
2018,07,08,15,31,17.70
2018,07,08,15,32,17.70
2018,07,08,15,33,17.70
2018,07,08,15,34,17.60
2018,07,08,15,35,17.60
2018,07,08,15,36,17.70
2018,07,08,15,37,17.70
2018,07,08,15,38,17.70
2018,07,08,15,39,17.70
2018,07,08,15,40,17.70
2018,07,08,15,41,17.80
2018,07,08,15,42,17.80
2018,07,08,15,43,17.90
2018,07,08,15,44,18.00
2018,07,08,15,45,18.10
2018,07,08,15,46,18.20
2018,07,08,15,47,18.20
2018,07,08,15,48,18.20
2018,07,08,15,49,18.20
2018,07,08,15,50,18.20
2018,07,08,15,51,18.30
2018,07,08,15,52,18.30
2018,07,08,15,53,18.40
2018,07,08,15,54,18.50
2018,07,08,15,55,18.60
2018,07,08,15,56,18.70
2018,07,08,15,57,18.80
2018,07,08,15,58,18.80
2018,07,08,15,59,18.80
2018,07,08,16,00,18.80
2018,07,08,16,01,18.90
2018,07,08,16,02,18.90
2018,07,08,16,03,19.00
2018,07,08,16,04,19.10
2018,07,08,16,05,19.10
2018,07,08,16,06,19.20
2018,07,08,16,07,19.20
2018,07,08,16,08,19.30
2018,07,08,16,09,19.40
2018,07,08,16,10,19.40
2018,07,08,16,11,19.30
2018,07,08,16,12,19.30
2018,07,08,16,13,19.30
2018,07,08,16,14,19.20
2018,07,08,16,15,19.20
2018,07,08,16,16,19.20
2018,07,08,16,17,19.10
2018,07,08,16,18,19.00
2018,07,08,16,19,19.00
2018,07,08,16,20,18.90
2018,07,08,16,21,19.00
2018,07,08,16,22,19.00
2018,07,08,16,23,19.10
2018,07,08,16,24,19.10
2018,07,08,16,25,19.00
2018,07,08,16,26,19.00
2018,07,08,16,27,18.90
2018,07,08,16,28,18.90
2018,07,08,16,29,18.90
2018,07,08,16,30,18.90
2018,07,08,16,31,18.80
2018,07,08,16,32,18.80
2018,07,08,16,33,18.80
2018,07,08,16,34,18.80
2018,07,08,16,35,18.80
2018,07,08,16,36,18.80
2018,07,08,16,37,18.80
2018,07,08,16,38,18.80
2018,07,08,16,39,18.80
2018,07,08,16,40,18.80
2018,07,08,16,41,18.80
2018,07,08,16,42,18.80
2018,07,08,16,43,18.80
2018,07,08,16,44,18.80
2018,07,08,16,45,18.80
2018,07,08,16,46,18.80
2018,07,08,16,47,18.90
2018,07,08,16,48,18.90
2018,07,08,16,49,19.00
2018,07,08,16,50,19.00
2018,07,08,16,51,18.90
2018,07,08,16,52,18.90
2018,07,08,16,53,18.90
2018,07,08,16,54,18.90
2018,07,08,16,55,18.90
2018,07,08,16,56,19.00
2018,07,08,16,57,19.00
2018,07,08,16,58,19.10
2018,07,08,16,59,19.00
2018,07,08,17,00,19.00
2018,07,08,17,01,19.00
2018,07,08,17,02,19.10
2018,07,08,17,03,19.00
2018,07,08,17,04,18.80
2018,07,08,17,05,18.70
2018,07,08,17,06,18.70
2018,07,08,17,07,18.70
2018,07,08,17,08,18.60
2018,07,08,17,09,18.60
2018,07,08,17,10,18.70
2018,07,08,17,11,18.70
2018,07,08,17,12,18.80
2018,07,08,17,13,18.80
2018,07,08,17,14,18.70
2018,07,08,17,15,18.70
2018,07,08,17,16,18.60
2018,07,08,17,17,18.60
2018,07,08,17,18,18.50
2018,07,08,17,19,18.60